When you browse on this site, cookies collect data to enhance your experience and personalize the content and advertising you see.
Visit our Privacy Policy to learn more. By continuing to use the site, you agree to this use of cookies and data.
  • In United Kingdom
  • List of Countries
  • For 7 days
  • Water Temperature
  • Weather Map
  • Weather Widgets
  • user-avatar
    Login

    Hourly Weather Matanzas

    Today, 18 August, Sunday

    Time Temperature Precipitation Wind Pressure Humidity
    00:00 +27°C° 0.1 mm 3 mps 758 mmHg 93%
    01:00 +26°C° 0.1 mm 3 mps 758 mmHg 95%
    02:00 +26°C° 0 mm 3 mps 757 mmHg 95%
    03:00 +26°C° 0 mm 3 mps 757 mmHg 96%
    04:00 +26°C° 0 mm 3 mps 756 mmHg 96%
    05:00 +26°C° 0 mm 3 mps 757 mmHg 96%
    06:00 +26°C° 0 mm 4 mps 757 mmHg 95%
    07:00 +27°C° 0 mm 4 mps 757 mmHg 95%
    08:00 +28°C° 0 mm 4 mps 758 mmHg 89%
    09:00 +30°C° 0 mm 5 mps 758 mmHg 84%
    10:00 +32°C° 0 mm 5 mps 758 mmHg 78%
    11:00 +33°C° 0 mm 5 mps 758 mmHg 74%
    12:00 +34°C° 0 mm 6 mps 758 mmHg 71%
    13:00 +35°C° 0 mm 6 mps 757 mmHg 67%
    14:00 +34°C° 0 mm 6 mps 757 mmHg 68%
    15:00 +33°C° 0 mm 6 mps 756 mmHg 69%
    16:00 +33°C° 0 mm 7 mps 756 mmHg 71%
    17:00 +32°C° 0 mm 6 mps 756 mmHg 76%
    18:00 +29°C° 0 mm 6 mps 756 mmHg 81%
    19:00 +28°C° 0 mm 5 mps 756 mmHg 86%
    20:00 +28°C° 0 mm 5 mps 756 mmHg 87%
    21:00 +27°C° 0 mm 4 mps 757 mmHg 88%
    22:00 +27°C° 0 mm 4 mps 757 mmHg 89%
    23:00 +27°C° 0.1 mm 4 mps 757 mmHg 90%

    Tomorrow, 19 August, Monday

    Time Temperature Precipitation Wind Pressure Humidity
    00:00 +27°C° 0.1 mm 4 mps 757 mmHg 91%
    01:00 +27°C° 0.1 mm 3 mps 757 mmHg 93%
    02:00 +26°C° 0.9 mm 3 mps 756 mmHg 92%
    03:00 +26°C° 0.9 mm 3 mps 756 mmHg 91%
    04:00 +26°C° 0.9 mm 3 mps 756 mmHg 91%
    05:00 +26°C° 0.1 mm 3 mps 756 mmHg 91%
    06:00 +27°C° 0.1 mm 3 mps 756 mmHg 91%
    07:00 +27°C° 0.1 mm 4 mps 756 mmHg 90%
    08:00 +28°C° 0.1 mm 4 mps 756 mmHg 85%
    09:00 +30°C° 0.1 mm 5 mps 756 mmHg 79%
    10:00 +32°C° 0.1 mm 6 mps 757 mmHg 73%
    11:00 +32°C° 0.5 mm 6 mps 756 mmHg 73%
    12:00 +33°C° 0.5 mm 6 mps 756 mmHg 74%
    13:00 +33°C° 0.5 mm 6 mps 756 mmHg 74%
    14:00 +32°C° 1.5 mm 5 mps 756 mmHg 75%
    15:00 +32°C° 1.5 mm 5 mps 755 mmHg 77%
    16:00 +32°C° 1.5 mm 5 mps 755 mmHg 79%
    17:00 +30°C° 1.1 mm 5 mps 755 mmHg 82%
    18:00 +29°C° 1.1 mm 4 mps 755 mmHg 85%
    19:00 +28°C° 1.1 mm 4 mps 756 mmHg 89%
    20:00 +27°C° 0.3 mm 4 mps 756 mmHg 89%
    21:00 +27°C° 0.3 mm 4 mps 756 mmHg 90%
    22:00 +27°C° 0.3 mm 3 mps 757 mmHg 91%
    23:00 +27°C° 0.4 mm 3 mps 757 mmHg 91%

    Day after tomorrow, 20 August, Tuesday

    Time Temperature Precipitation Wind Pressure Humidity
    00:00 +27°C° 0.4 mm 3 mps 756 mmHg 91%
    01:00 +26°C° 0.4 mm 3 mps 756 mmHg 91%
    02:00 +26°C° 0 mm 3 mps 756 mmHg 90%
    03:00 +26°C° 0 mm 3 mps 756 mmHg 90%
    04:00 +26°C° 0 mm 3 mps 755 mmHg 89%
    05:00 +26°C° 0 mm 3 mps 756 mmHg 90%
    06:00 +26°C° 0 mm 3 mps 756 mmHg 90%
    07:00 +26°C° 0 mm 4 mps 756 mmHg 91%
    08:00 +28°C° 0 mm 4 mps 757 mmHg 85%
    09:00 +29°C° 0 mm 4 mps 757 mmHg 79%
    10:00 +32°C° 0 mm 5 mps 757 mmHg 73%
    11:00 +33°C° 0 mm 5 mps 757 mmHg 70%
    12:00 +34°C° 0 mm 4 mps 757 mmHg 67%
    13:00 +35°C° 0 mm 4 mps 757 mmHg 64%
    14:00 +34°C° 0.4 mm 5 mps 756 mmHg 67%
    15:00 +34°C° 0.4 mm 5 mps 756 mmHg 71%
    16:00 +33°C° 0.4 mm 5 mps 755 mmHg 74%
    17:00 +32°C° 2.7 mm 5 mps 756 mmHg 78%
    18:00 +30°C° 2.7 mm 5 mps 756 mmHg 83%
    19:00 +28°C° 2.7 mm 5 mps 756 mmHg 87%
    20:00 +28°C° 0.9 mm 5 mps 757 mmHg 88%
    21:00 +27°C° 0.9 mm 4 mps 757 mmHg 89%
    22:00 +27°C° 0.9 mm 4 mps 758 mmHg 90%
    23:00 +27°C° 0 mm 3 mps 757 mmHg 90%

    21 August, Wednesday

    Time Temperature Precipitation Wind Pressure Humidity
    00:00 +26°C° 0 mm 3 mps 757 mmHg 91%
    01:00 +26°C° 0 mm 3 mps 757 mmHg 91%
    02:00 +26°C° 0 mm 3 mps 757 mmHg 91%
    03:00 +26°C° 0 mm 3 mps 756 mmHg 91%
    04:00 +26°C° 0 mm 3 mps 756 mmHg 91%
    05:00 +26°C° 0.1 mm 3 mps 756 mmHg 92%
    06:00 +27°C° 0.1 mm 3 mps 757 mmHg 92%
    07:00 +27°C° 0.1 mm 3 mps 757 mmHg 93%
    08:00 +28°C° 0.1 mm 4 mps 757 mmHg 87%
    09:00 +30°C° 0.1 mm 4 mps 758 mmHg 82%
    10:00 +32°C° 0.1 mm 5 mps 758 mmHg 77%
    11:00 +33°C° 0.4 mm 5 mps 758 mmHg 76%
    12:00 +33°C° 0.4 mm 5 mps 757 mmHg 75%
    13:00 +33°C° 0.4 mm 5 mps 757 mmHg 74%
    14:00 +32°C° 1.5 mm 5 mps 757 mmHg 78%
    15:00 +30°C° 1.5 mm 5 mps 756 mmHg 83%
    16:00 +29°C° 1.5 mm 5 mps 756 mmHg 87%
    17:00 +28°C° 0.9 mm 5 mps 756 mmHg 88%
    18:00 +28°C° 0.9 mm 4 mps 756 mmHg 89%
    19:00 +28°C° 0.9 mm 4 mps 756 mmHg 90%
    20:00 +28°C° 0.1 mm 4 mps 757 mmHg 91%
    21:00 +27°C° 0.1 mm 4 mps 757 mmHg 91%
    22:00 +27°C° 0.1 mm 4 mps 757 mmHg 92%
    23:00 +27°C° 0 mm 4 mps 757 mmHg 92%

    22 August, Thursday

    Time Temperature Precipitation Wind Pressure Humidity
    00:00 +27°C° 0 mm 4 mps 757 mmHg 93%
    01:00 +26°C° 0 mm 4 mps 756 mmHg 93%
    02:00 +26°C° 0 mm 3 mps 756 mmHg 93%
    03:00 +26°C° 0 mm 3 mps 756 mmHg 94%
    04:00 +26°C° 0 mm 3 mps 755 mmHg 94%
    05:00 +26°C° 0 mm 3 mps 756 mmHg 94%
    06:00 +26°C° 0 mm 3 mps 756 mmHg 94%
    07:00 +26°C° 0 mm 3 mps 757 mmHg 94%
    08:00 +28°C° 0.4 mm 3 mps 757 mmHg 88%
    09:00 +29°C° 0.4 mm 3 mps 757 mmHg 82%
    10:00 +31°C° 0.4 mm 3 mps 757 mmHg 76%
    11:00 +33°C° 0.9 mm 4 mps 757 mmHg 74%
    12:00 +33°C° 0.9 mm 4 mps 757 mmHg 72%
    13:00 +34°C° 0.9 mm 4 mps 757 mmHg 69%
    14:00 +33°C° 1.5 mm 4 mps 756 mmHg 72%
    15:00 +32°C° 1.5 mm 5 mps 756 mmHg 74%
    16:00 +32°C° 1.5 mm 5 mps 755 mmHg 77%
    17:00 +30°C° 0.6 mm 5 mps 755 mmHg 81%
    18:00 +29°C° 0.6 mm 5 mps 756 mmHg 85%
    19:00 +27°C° 0.6 mm 4 mps 756 mmHg 89%
    20:00 +27°C° 0.1 mm 4 mps 756 mmHg 90%
    21:00 +27°C° 0.1 mm 4 mps 756 mmHg 92%
    22:00 +26°C° 0.1 mm 4 mps 757 mmHg 93%
    23:00 +26°C° 0 mm 3 mps 756 mmHg 93%

    23 August, Friday

    Time Temperature Precipitation Wind Pressure Humidity
    00:00 +26°C° 0 mm 3 mps 756 mmHg 93%
    01:00 +26°C° 0 mm 2 mps 756 mmHg 93%
    02:00 +26°C° 0 mm 2 mps 756 mmHg 93%
    03:00 +25°C° 0 mm 2 mps 756 mmHg 93%
    04:00 +25°C° 0 mm 2 mps 756 mmHg 92%
    05:00 +26°C° 0 mm 2 mps 756 mmHg 92%
    06:00 +26°C° 0 mm 2 mps 756 mmHg 93%
    07:00 +26°C° 0 mm 2 mps 756 mmHg 93%
    08:00 +28°C° 0 mm 3 mps 757 mmHg 86%
    09:00 +29°C° 0 mm 3 mps 757 mmHg 80%
    10:00 +32°C° 0 mm 4 mps 757 mmHg 74%
    11:00 +33°C° 0.5 mm 4 mps 757 mmHg 72%
    12:00 +33°C° 0.5 mm 4 mps 756 mmHg 70%
    13:00 +34°C° 0.5 mm 4 mps 756 mmHg 67%
    14:00 +34°C° 0.2 mm 4 mps 756 mmHg 68%
    15:00 +33°C° 0.2 mm 4 mps 755 mmHg 68%
    16:00 +33°C° 0.2 mm 4 mps 755 mmHg 68%
    17:00 +32°C° 1.5 mm 4 mps 755 mmHg 74%
    18:00 +29°C° 1.5 mm 4 mps 755 mmHg 81%
    19:00 +27°C° 1.5 mm 4 mps 756 mmHg 87%
    20:00 +27°C° 0.4 mm 3 mps 756 mmHg 88%
    21:00 +26°C° 0.4 mm 3 mps 756 mmHg 89%
    22:00 +26°C° 0.4 mm 2 mps 757 mmHg 90%
    23:00 +26°C° 0 mm 2 mps 756 mmHg 91%
    Show more